Weather History for Wildwood, NJ

Change the Weather History Date:

Wednesday, April 30, 2014

  Actual Average Record
Temperature  
Mean Temperature 52 °F -  
Max Temperature 59 °F 63 °F 78 °F (2007)
Min Temperature 46 °F 47 °F 39 °F (2001)
Degree Days  
Heating Degree Days 12    
Growing Degree Days 2 (Base 50)    
Moisture  
Dew Point 50 °F    
Average Humidity 88    
Maximum Humidity 94    
Minimum Humidity 82    
Precipitation  
Precipitation 1.08 in - - ()
Sea Level Pressure  
Sea Level Pressure 30.13 in    
Wind  
Wind Speed 17 mph (ESE)    
Max Wind Speed 24 mph    
Max Gust Speed 34 mph    
Visibility 5 miles    
Events Thunderstorm    
Averages and records for this station are not official NWS values.
T = Trace of Precipitation, MM = Missing Value Source: NWS Daily Summary

Daily Weather History Graph

Daily Weather History Graph

Search for Another Location

Airport:

Trip Planner

Search our weather history database for the weather conditions in past years. The results will help you decide how hot, cold, wet, or windy it might be!

Date:

Astronomy

Apr. 30, 2014 Rise Set
Actual Time 6:02 AM EDT 7:51 PM EDT
Civil Twilight 5:34 AM EDT 8:20 PM EDT
Nautical Twilight 4:59 AM EDT 8:55 PM EDT
Astronomical Twilight 4:22 AM EDT 9:32 PM EDT
Moon 7:02 AM EDT (4/30) 9:27 PM EDT (4/30)
Length of Visible Light 14h 46m
Length of Day
13h 48m
New Moon, 2% of the Moon is Illuminated
Apr 30
New Moon
May 6
First Quarter
May 14
Full
May 21
Last Quarter
May 28
New

Hourly Weather History & Observations

Time (EDT) Temp. Windchill Dew Point Humidity Pressure Visibility Wind Dir Wind Speed Gust Speed Precip Events Conditions
12:15 AM 46.4 °F 39.0 °F 42.8 °F 87% 30.26 in 6.0 mi ENE 19.6 mph 27.6 mph N/A   Overcast
12:35 AM 46.4 °F 39.5 °F 42.8 °F 87% 30.26 in 7.0 mi ENE 17.3 mph 28.8 mph N/A   Overcast
12:55 AM 46.4 °F 39.5 °F 42.8 °F 87% 30.26 in 7.0 mi ENE 17.3 mph 28.8 mph N/A   Overcast
1:15 AM 46.4 °F 38.7 °F 42.8 °F 87% 30.25 in 6.0 mi East 20.7 mph 26.5 mph N/A   Overcast
1:35 AM 46.4 °F 39.5 °F 42.8 °F 87% 30.26 in 4.0 mi ENE 17.3 mph 27.6 mph N/A   Overcast
1:55 AM 46.4 °F 39.8 °F 42.8 °F 87% 30.24 in 4.0 mi East 16.1 mph 24.2 mph N/A   Overcast
2:15 AM 46.4 °F 40.7 °F 42.8 °F 87% 30.25 in 5.0 mi East 12.7 mph 24.2 mph N/A   Overcast
2:35 AM 48.2 °F - 42.8 °F 82% 30.24 in 5.0 mi ENE 20.7 mph 26.5 mph N/A   Overcast
2:55 AM 46.4 °F 39.0 °F 42.8 °F 87% 30.23 in 5.0 mi ENE 19.6 mph 25.3 mph 0.01 in   Overcast
3:15 AM 48.2 °F - 44.6 °F 87% 30.22 in 4.0 mi ENE 17.3 mph 25.3 mph 0.03 in   Overcast
3:35 AM 48.2 °F - 44.6 °F 87% 30.22 in 5.0 mi ENE 18.4 mph 24.2 mph 0.04 in   Overcast
3:55 AM 48.2 °F - 44.6 °F 87% 30.21 in 5.0 mi ENE 19.6 mph 25.3 mph 0.04 in   Overcast
4:15 AM 48.2 °F - 44.6 °F 87% 30.22 in 5.0 mi ENE 19.6 mph 25.3 mph 0.01 in   Overcast
4:35 AM 48.2 °F - 44.6 °F 87% 30.21 in 7.0 mi ENE 13.8 mph 24.2 mph 0.01 in   Overcast
4:55 AM 48.2 °F - 44.6 °F 87% 30.21 in 6.0 mi ENE 17.3 mph 24.2 mph 0.01 in   Overcast
5:15 AM 48.2 °F - 44.6 °F 87% 30.21 in 6.0 mi East 10.4 mph 23.0 mph N/A   Overcast
5:35 AM 48.2 °F - 44.6 °F 87% 30.21 in 5.0 mi ENE 11.5 mph 19.6 mph N/A   Overcast
5:55 AM 48.2 °F - 44.6 °F 87% 30.21 in 5.0 mi East 15.0 mph - N/A   Overcast
6:15 AM 50.0 °F - 46.4 °F 87% 30.21 in 6.0 mi East 15.0 mph 21.9 mph N/A   Overcast
6:35 AM 50.0 °F - 46.4 °F 87% 30.21 in 3.0 mi ENE 17.3 mph 24.2 mph 0.01 in   Overcast
6:55 AM 50.0 °F - 46.4 °F 87% 30.21 in 3.0 mi East 12.7 mph 23.0 mph 0.01 in   Mostly Cloudy
7:15 AM 50.0 °F - 46.4 °F 87% 30.22 in 4.0 mi ENE 16.1 mph 23.0 mph 0.04 in   Overcast
7:35 AM 50.0 °F - 46.4 °F 87% 30.21 in 3.0 mi East 16.1 mph 26.5 mph 0.06 in   Overcast
7:55 AM 51.8 °F - 46.4 °F 82% 30.20 in 4.0 mi East 13.8 mph 20.7 mph 0.12 in   Overcast
8:15 AM 51.8 °F - 48.2 °F 88% 30.20 in 3.0 mi East 16.1 mph 21.9 mph 0.02 in   Overcast
8:35 AM 51.8 °F - 48.2 °F 88% 30.20 in 3.0 mi East 12.7 mph 21.9 mph 0.06 in   Overcast
8:55 AM 51.8 °F - 48.2 °F 88% 30.20 in 3.0 mi ENE 12.7 mph 20.7 mph 0.11 in   Overcast
9:15 AM 51.8 °F - 48.2 °F 88% 30.20 in 3.0 mi East 10.4 mph 19.6 mph 0.12 in   Overcast
9:35 AM 51.8 °F - 48.2 °F 88% 30.18 in 3.0 mi East 12.7 mph 20.7 mph 0.17 in   Overcast
9:55 AM 53.6 °F - 50.0 °F 88% 30.18 in 5.0 mi East 9.2 mph - 0.21 in   Overcast
10:15 AM 53.6 °F - 51.8 °F 94% 30.17 in 4.0 mi ENE 11.5 mph - 0.15 in   Overcast
10:35 AM 53.6 °F - 51.8 °F 94% 30.17 in 5.0 mi East 12.7 mph 19.6 mph 0.17 in Thunderstorm Overcast
11:15 AM 53.6 °F - 51.8 °F 94% 30.16 in 5.0 mi ESE 11.5 mph 17.3 mph N/A   Overcast
11:35 AM 55.4 °F - 51.8 °F 88% 30.16 in 6.0 mi ESE 12.7 mph 17.3 mph N/A   Overcast
11:55 AM 55.4 °F - 51.8 °F 88% 30.16 in 6.0 mi SE 13.8 mph 19.6 mph N/A   Overcast
12:15 PM 55.4 °F - 51.8 °F 88% 30.15 in 7.0 mi SE 15.0 mph 21.9 mph N/A   Overcast
12:35 PM 55.4 °F - 53.6 °F 94% 30.14 in 8.0 mi SE 15.0 mph 24.2 mph N/A   Overcast
12:55 PM 57.2 °F - 53.6 °F 88% 30.12 in 8.0 mi SE 16.1 mph 24.2 mph N/A   Overcast
1:15 PM 57.2 °F - 53.6 °F 88% 30.12 in 9.0 mi SE 15.0 mph 26.5 mph N/A   Overcast
1:35 PM 57.2 °F - 53.6 °F 88% 30.12 in 9.0 mi SE 17.3 mph 23.0 mph N/A   Overcast
1:55 PM 57.2 °F - 53.6 °F 88% 30.11 in 9.0 mi SE 16.1 mph 23.0 mph N/A   Overcast
2:15 PM 57.2 °F - 53.6 °F 88% 30.10 in 8.0 mi SE 15.0 mph 24.2 mph N/A   Overcast
2:35 PM 57.2 °F - 53.6 °F 88% 30.10 in 8.0 mi SE 17.3 mph 24.2 mph N/A   Overcast
2:55 PM 57.2 °F - 53.6 °F 88% 30.10 in 7.0 mi SE 16.1 mph 23.0 mph N/A   Overcast
3:15 PM 57.2 °F - 53.6 °F 88% 30.08 in 7.0 mi SE 18.4 mph 24.2 mph N/A   Overcast
3:35 PM 57.2 °F - 53.6 °F 88% 30.06 in 7.0 mi SE 21.9 mph 29.9 mph N/A   Overcast
3:55 PM 57.2 °F - 55.4 °F 94% 30.05 in 7.0 mi SE 21.9 mph 34.5 mph N/A   Overcast
4:15 PM 59.0 °F - 55.4 °F 88% 30.05 in 8.0 mi SE 23.0 mph 32.2 mph N/A   Overcast
4:35 PM 59.0 °F - 55.4 °F 88% 30.05 in 8.0 mi SE 24.2 mph 31.1 mph N/A   Overcast
5:15 PM 59.0 °F - 55.4 °F 88% 30.04 in 8.0 mi SSE 23.0 mph 28.8 mph N/A   Overcast
5:35 PM 59.0 °F - 55.4 °F 88% 30.04 in 8.0 mi SSE 20.7 mph 32.2 mph N/A   Overcast
5:55 PM 57.2 °F - 55.4 °F 94% 30.03 in 8.0 mi SSE 17.3 mph 27.6 mph 0.01 in   Overcast
6:15 PM 57.2 °F - 53.6 °F 88% 30.03 in 7.0 mi SSE 19.6 mph 27.6 mph N/A   Overcast
6:35 PM 57.2 °F - 53.6 °F 88% 30.03 in 5.0 mi SSE 18.4 mph 28.8 mph N/A   Overcast
6:55 PM 57.2 °F - 53.6 °F 88% 30.03 in 5.0 mi SSE 13.8 mph 25.3 mph 0.01 in   Overcast
7:15 PM 57.2 °F - 53.6 °F 88% 30.02 in 4.0 mi SSE 16.1 mph 25.3 mph N/A   Overcast
7:35 PM 57.2 °F - 55.4 °F 94% 30.02 in 3.0 mi SSE 13.8 mph 21.9 mph N/A   Overcast
7:55 PM 57.2 °F - 53.6 °F 88% 30.02 in 4.0 mi South 12.7 mph - 0.01 in   Overcast
8:15 PM 57.2 °F - 53.6 °F 88% 30.03 in 3.0 mi South 11.5 mph 19.6 mph 0.01 in   Overcast
8:35 PM 55.4 °F - 53.6 °F 94% 30.01 in 4.0 mi SSE 11.5 mph - 0.02 in   Overcast
8:55 PM 55.4 °F - 53.6 °F 94% 30.01 in 5.0 mi SSE 17.3 mph 23.0 mph 0.14 in   Overcast
9:15 PM 55.4 °F - 53.6 °F 94% 30.00 in 9.0 mi South 15.0 mph 20.7 mph 0.21 in   Overcast
9:35 PM 57.2 °F - 53.6 °F 88% 29.99 in 2.5 mi SSE 15.0 mph - 0.22 in   Overcast
9:55 PM 57.2 °F - 53.6 °F 88% 29.99 in 1.2 mi SSE 15.0 mph - 0.22 in   Overcast
10:15 PM 57.2 °F - 53.6 °F 88% 29.98 in 1.5 mi SSE 16.1 mph - 0.01 in   Overcast
10:35 PM 57.2 °F - 53.6 °F 88% 29.96 in 2.5 mi SSE 16.1 mph 25.3 mph 0.01 in   Overcast
10:55 PM 57.2 °F - 53.6 °F 88% 29.96 in 3.0 mi South 20.7 mph 26.5 mph 0.01 in   Overcast
11:15 PM 57.2 °F - 53.6 °F 88% 29.95 in 1.8 mi South 19.6 mph 28.8 mph N/A   Overcast
11:35 PM 55.4 °F - 53.6 °F 94% 29.94 in 1.0 mi South 17.3 mph 25.3 mph N/A   Overcast
11:55 PM 57.2 °F - 53.6 °F 88% 29.94 in 1.8 mi South 20.7 mph 25.3 mph N/A   Overcast